QPF
0.00 0.00 0.00 0.00 0.00 0.00 0.00 0.00 0.00 0.00 0.00 0.00 0.00 0.00 0.00 0.00 0.00 0.00 0.00 0.00 0.00 0.00
0.00 0.00 0.00 0.00 0.00 0.00 0.00 0.00 0.00 0.00 0.00 0.00 0.00 0.00 0.00 0.00 0.00 0.00 0.00 0.00 0.00 0.00
0.00 0.00 0.00 0.00 0.00 0.00 0.00 0.00 0.00 0.00 0.00 0.00 0.00 0.00 0.00 0.00 0.00 0.00 0.00 0.00 0.00 0.00
0.00 0.00 0.00 0.00 0.00 0.00 0.00 0.00 0.00 0.00 0.00 0.00 0.00 0.00 0.00 0.00 0.00 0.00 0.00 0.00 0.00 0.00
0.00 0.00 0.00 0.00 0.00 0.00 0.00 0.00 0.00 0.00 0.00 0.00 0.00 0.00 0.00 0.00 0.00 0.00 0.00 0.00 0.00 0.00
0.00 0.00 0.00 0.00 0.00 0.00 0.00 0.00 0.00 0.00 0.00 0.00 0.00 0.00 0.00 0.00 0.00 0.00 0.00 0.00 0.00 0.00
0.00 0.00 0.00 0.00 0.00 0.00 0.00 0.00 0.00 0.00 0.00 0.00 0.00 0.00 0.01 0.00 0.00 0.00 0.00 0.00 0.00 0.00
0.00 0.00 0.00 0.00 0.00 0.00 0.00 0.00 0.00 0.00 0.00 0.00 0.00 0.00 0.01 0.01 0.00 0.00 0.00 0.00 0.00 0.00
0.00 0.00 0.00 0.00 0.00 0.00 0.00 0.00 0.00 0.00 0.00 0.00 0.00 0.00 0.00 0.00 0.00 0.00 0.00 0.00 0.00 0.00
0.00 0.00 0.00 0.00 0.00 0.00 0.00 0.00 0.00 0.00 0.00 0.00 0.00 0.00 0.00 0.00 0.00 0.00 0.00 0.00 0.00 0.00
0.00 0.00 0.00 0.00 0.00 0.00 0.00 0.00 0.00 0.00 0.00 0.00 0.00 0.00 0.00 0.00 0.00 0.00 0.00 0.00 0.00 0.00
0.00 0.00 0.00 0.00 0.00 0.00 0.00 0.00 0.00 0.00 0.00 0.00 0.00 0.00 0.00 0.00 0.00 0.00 0.00 0.00 0.00 0.00
0.00 0.00 0.00 0.00 0.00 0.00 0.00 0.00 0.00 0.00 0.00 0.00 0.00 0.00 0.00 0.00 0.00 0.01 0.00 0.00 0.00 0.00
0.00 0.00 0.00 0.00 0.00 0.00 0.00 0.00 0.00 0.00 0.00 0.00 0.00 0.00 0.00 0.00 0.00 0.00 0.00 0.00 0.00 0.00
MSLP
1024.40 1023.97 1023.65 1023.51 1023.23 1022.87 1022.44 1021.87 1021.62 1021.16 1020.67 1020.08 1019.39 1018.73 1018.12 1017.54 1016.99 1016.66 1016.17 1015.76 1015.28 1014.97
1024.47 1024.18 1023.86 1023.53 1023.33 1022.91 1022.52 1022.03 1021.40 1021.23 1020.68 1020.10 1019.60 1018.99 1018.35 1017.49 1017.14 1016.47 1015.95 1015.40 1015.12 1014.97
1024.36 1024.10 1023.79 1023.52 1023.31 1022.91 1022.50 1022.24 1021.71 1021.04 1020.69 1020.22 1019.73 1019.30 1018.71 1017.99 1017.22 1016.83 1016.19 1015.71 1015.50 1015.13
1024.38 1024.17 1023.95 1023.67 1023.43 1022.98 1022.45 1022.23 1021.85 1021.26 1020.83 1020.42 1019.84 1019.36 1018.84 1018.23 1017.69 1016.84 1016.42 1016.15 1015.82 1015.16
1024.57 1024.32 1024.19 1023.90 1023.53 1023.02 1022.50 1022.33 1021.93 1021.40 1020.83 1020.27 1020.05 1019.55 1019.10 1018.45 1017.87 1017.26 1016.86 1016.58 1016.09 1015.40
1024.75 1024.56 1024.39 1024.11 1023.64 1023.04 1022.71 1022.22 1021.63 1021.30 1020.96 1020.37 1020.22 1019.95 1019.59 1019.15 1018.29 1017.75 1017.54 1017.18 1016.35 1015.50
1025.04 1024.87 1024.61 1024.25 1023.81 1023.36 1023.15 1022.72 1022.04 1021.60 1021.38 1020.68 1020.44 1019.99 1019.58 1019.39 1018.82 1018.06 1017.70 1017.56 1016.99 1016.00
1025.28 1025.06 1024.79 1024.42 1023.98 1023.60 1023.32 1022.99 1022.53 1021.97 1021.36 1021.23 1020.77 1020.66 1020.05 1019.44 1019.10 1018.55 1017.86 1017.81 1017.42 1016.72
1025.36 1025.09 1024.80 1024.49 1024.18 1023.84 1023.46 1023.01 1022.55 1022.14 1021.80 1021.41 1021.12 1020.89 1020.38 1019.82 1019.28 1018.77 1018.41 1017.98 1017.67 1017.11
1025.35 1025.15 1024.95 1024.63 1024.25 1023.90 1023.72 1023.31 1022.88 1022.32 1021.89 1021.44 1021.27 1021.13 1020.51 1020.05 1019.60 1019.20 1018.84 1018.50 1018.06 1017.60
1025.30 1025.16 1025.08 1024.78 1024.41 1024.06 1024.01 1023.72 1023.25 1022.80 1022.29 1021.68 1021.36 1021.33 1020.74 1020.11 1019.81 1019.36 1019.03 1018.79 1018.34 1017.97
1025.33 1025.12 1024.98 1024.73 1024.60 1024.43 1024.23 1023.89 1023.52 1023.03 1022.57 1022.07 1021.67 1021.59 1021.07 1020.42 1019.50 1019.58 1019.25 1019.00 1018.69 1018.27
1025.32 1025.19 1024.99 1025.06 1024.84 1024.74 1024.53 1024.10 1023.66 1023.13 1022.71 1022.31 1021.85 1021.60 1021.38 1020.89 1020.25 1019.37 1019.35 1019.02 1018.94 1018.90
1025.24 1025.16 1025.13 1025.07 1024.88 1024.75 1024.46 1024.06 1023.62 1023.20 1022.83 1022.37 1022.06 1021.73 1021.63 1021.21 1020.58 1020.22 1019.49 1019.34 1019.16 1019.05
Thickness
5537 5530 5523 5515 5510 5504 5496 5490 5480 5473 5467 5464 5463 5463 5465 5469 5473 5477 5483 5489 5493 5498
5533 5525 5519 5514 5506 5501 5494 5487 5480 5471 5466 5463 5460 5459 5460 5467 5469 5476 5481 5488 5492 5494
5532 5524 5519 5513 5505 5499 5493 5486 5480 5474 5467 5463 5459 5457 5458 5461 5468 5472 5477 5482 5485 5488
5530 5523 5517 5511 5503 5496 5492 5485 5480 5475 5469 5464 5462 5460 5459 5461 5464 5470 5473 5475 5478 5484
5528 5522 5515 5509 5502 5496 5492 5485 5480 5476 5473 5471 5465 5462 5460 5461 5463 5466 5467 5468 5472 5477
5528 5520 5513 5507 5502 5497 5491 5487 5483 5479 5475 5473 5468 5463 5459 5457 5461 5462 5461 5461 5467 5473
5527 5519 5513 5508 5503 5498 5490 5485 5484 5480 5474 5473 5468 5466 5464 5459 5458 5460 5459 5456 5459 5467
5525 5518 5512 5507 5503 5499 5492 5487 5483 5480 5478 5471 5468 5463 5462 5461 5458 5458 5459 5454 5455 5459
5524 5518 5513 5508 5503 5498 5494 5490 5487 5483 5478 5474 5470 5464 5462 5460 5458 5457 5455 5455 5454 5457
5525 5519 5512 5507 5504 5500 5495 5491 5488 5486 5482 5479 5473 5466 5464 5461 5458 5456 5454 5453 5453 5454
5525 5519 5512 5507 5503 5499 5494 5490 5487 5484 5482 5480 5476 5469 5466 5464 5461 5458 5456 5454 5454 5453
5525 5519 5514 5510 5504 5498 5493 5490 5487 5485 5482 5480 5477 5470 5468 5467 5468 5460 5458 5456 5454 5454
5524 5519 5515 5507 5503 5497 5493 5490 5488 5486 5484 5481 5479 5474 5470 5467 5467 5468 5460 5459 5455 5451
5524 5519 5514 5508 5504 5498 5494 5491 5488 5486 5483 5481 5479 5477 5471 5469 5468 5464 5465 5459 5456 5454